Location: Cortada de Papelón
(10.0378°N, 66.9528°W)
Time: 09:55:46
(UTC+00:00)

Cosmos 2251 Rocket - Pass Details

Date: 13 June 2024
Orbit: 762 x 790 km, 74.0° (Epoch: 19 July)

Event Time Altitude Azimuth Distance (km) Brightness Sun altitude
Rises 23:38:19 0° 191° (S) 3,218 6.6 -11.8°
Reaches altitude 10° 23:40:41 10° 191° (S) 2,295 5.8 -12.3°
Maximum altitude 23:45:53 85° 103° (ESE) 773 3.4 -13.4°
Drops below altitude 10° 23:51:08 10° 14° (NNE) 2,309 6.1 -14.6°
Sets 23:53:31 0° 14° (NNE) 3,240 6.9 -15.1°
